Regional Weather Roundup
Issued by NWS Wakefield, VA

Home | Current Version | Previous Version | Text Only | Print | Product List | Glossary On
Versions: 1 2 3 4 5 6 7 8 9 10 11 12 13 14 15 16 17 18 19 20 21 22 23 24 25 26 27
000
ASUS41 KAKQ 250715
RWRAKQ

REGIONAL WEATHER ROUNDUP
NATIONAL WEATHER SERVICE WAKEFIELD VA
300 AM EDT SUN JUN 25 2017

Note: "fair" indicates few or no clouds below 12,000 feet with no
significant weather and/or obstructions to visibility. * = Denotes
station may not report precipitation (e.g., rain,snow,etc.),
thunder or fog.

VAZ042-051-052>054-056-250800-
NORTHERN VIRGINIA

CITY           SKY/WX    TMP DP  RH WIND       PRES   REMARKS
WASH NATIONAL  PTCLDY    77  58  51 NW8       29.97S
DULLES         PTCLDY    65  59  81 CALM      29.98F
FORT BELVOIR   CLEAR     64  61  91 CALM      29.97S
QUANTICO       MOCLDY    71  66  84 NW7       29.98S
FREDERICKSBRG* MOCLDY    71  65  81 CALM      29.97S
STAFFORD*      MOCLDY    65  65 100 NW3       30.02S
WARRENTON      PTCLDY    63  60  89 CALM      29.99R
CULPEPER*      PTCLDY    64  62  96 CALM      30.00S
MANASSAS*      MOCLDY    64  63  96 CALM      29.99S
LEESBURG*      CLOUDY   N/A N/A N/A NW7       30.00S
WINCHESTER     MOCLDY    64  57  77 CALM      30.01S
FRONT ROYAL*   PTSUNNY   66  57  72 S5        30.01S
LURAY*         CLOUDY    63  61  94 CALM      30.04S
$$

VAZ048-049-060>072-079>083-250800-
CENTRAL AND SOUTH CENTRAL VIRGINIA

CITY           SKY/WX    TMP DP  RH WIND       PRES   REMARKS
RICHMOND       PTCLDY    74  71  91 SW7       29.97F
CHESTERFIELD*  FAIR      72  70  93 CALM      29.99S
PETERSBURG*    CLEAR     71  70  99 CALM      29.99S
HANOVER        CLEAR     69  65  86 CALM      29.98F
TAPPAHANNOCK*  CLEAR     67  67 100 CALM      29.97S
QUINTON*       FAIR      73  73 100 SW3       29.96F
CHARLOTTSVILLE CLEAR     67  62  84 CALM      30.00S
GORDONSVILLE*  SUNNY     64  62  93 CALM      30.00S
ORANGE*        PTCLDY    63  61  94 CALM      30.00S
LOUISA*        PTCLDY    70  64  83 CALM      29.99S
BUMPASS*       FAIR      67  67  99 W6        29.99R
FARMVILLE*     PTCLDY    71  66  85 W3        30.00S
CREWE*         FAIR      72  67  87 CALM      30.00S
FORT PICKETT*  FAIR     N/A N/A N/A SW5       30.00S
CHASE CITY*    FAIR      70  70  99 CALM      30.02S
CLARKSVILLE*   CLOUDY    70  70 100 CALM      30.01F
SOUTH HILL*    PTCLDY    71  71 100 SW6       30.07S
LAWRENCEVILLE* PTSUNNY   71  70  96 CALM      30.00S
EMPORIA*       PTCLDY    70  70 100 CALM      30.01F
$$

VAZ088>098-250800-
SOUTHEAST VIRGINIA

CITY           SKY/WX    TMP DP  RH WIND       PRES   REMARKS
NORFOLK        PTCLDY    75  72  90 SW9       29.97R
VIRGINIA BEACH PTCLDY    73  70  90 SW7       29.96S
NORFOLK NAVAL  PTCLDY    75  70  84 SW7       29.98S
WEST POINT*    CLEAR     73  71  93 CALM      29.98S
SALUDA*        FAIR      73  72  98 SW5       29.96S
NEWPORT NEWS   CLEAR     75  71  87 W10       29.97S
LANGLEY AFB    CLEAR     74  69  83 SW9       29.96F
FORT EUSTIS    CLEAR     74  71  89 W5        29.95F
WILLIAMSBURG*  CLEAR     75  70  83 CALM      29.98F
HR EXEC AP*    FAIR      72  68  88 CALM      29.96F
FRANKLIN*      MOCLDY    72  72 100 W6        29.99F
US460-WAKEFLD  MOCLDY    73  72  96 SW5       29.98F
$$

VAZ020-022-025-037-045-250800-
WEST CENTRAL AND SOUTHWEST VIRGINIA

CITY           SKY/WX    TMP DP  RH WIND       PRES   REMARKS
STAUNTON*      CLEAR     58  56  94 CALM      30.07F
WAYNESBORO*    SUNNY     61  57  88 CALM      30.07S
HOT SPRINGS VA CLEAR     59  50  72 W10G17    30.15F
LYNCHBURG      MOCLDY    61  59  93 CALM      30.04S
DANVILLE       FOG       67  67 100 CALM      30.03S VSB 3/4
SOUTH BOSTON*  FAIR      68  67  95 CALM      30.02S
MARTINSVILLE   PTCLDY    62  61  97 CALM      30.08S
ROANOKE        CLEAR     65  58  78 NW5       30.08S
BLACKSBURG     CLEAR     60  57  88 CALM      30.15S
DUBLIN*        CLEAR     64  54  69 W6        30.13S
MARION*        CLOUDY    59  56  89 CALM      30.18S
HILLSVILLE*    CLEAR     64  51  64 CALM      30.14S
RICHLANDS*     PTSUNNY   62  58  89 W3        30.17S
WISE*          PTCLDY    63  54  72 CALM      30.19S
ABINGDON*      MOCLDY    65  61  87 CALM      30.15S
$$

MDZ021>025-VAZ099-100-250800-
SOUTHERN MARYLAND AND THE DELMARVA PENINSULA

CITY           SKY/WX    TMP DP  RH WIND       PRES   REMARKS
PATUXENT RIVER PTCLDY    67  64  90 W3        29.95S
BAY BRIDGE APT CLEAR     77  63  61 NW7       29.95S
LEONARDTOWN    CLEAR     64  61  88 W3        29.98S
DOVER          CLEAR     70  67  89 W6        29.93S
GEORGETOWN     CLEAR     67  63  87 CALM      29.95S
EASTON         CLEAR     69  64  84 CALM      29.99S
CAMBRIDGE      CLEAR     64  64 100 CALM      29.95S
SALISBURY      CLEAR     67  66  97 CALM      29.95S
OCEAN CITY     CLEAR     68  67  96 NW3       29.94F
WALLOPS ISLAND PTCLDY    70  70 100 CALM      29.95R
ACCOMACK*      MOCLDY    76  72  87 SW3       29.95S
$$

NCZ012>017-030>032-250800-
NORTH CENTRAL AND EASTERN NORTH CAROLINA

CITY           SKY/WX    TMP DP  RH WIND       PRES   REMARKS
ROANOKE RAPIDS FAIR      70  70 100 CALM      30.01S
RALEIGH        MOCLDY    71  70  96 CALM      30.02F
ELIZABETH CITY CLOUDY    73  73 100 W3        29.98S
AHOSKIE*         N/A     70  69  98 CALM      30.00S
EDENTON*       CLOUDY    76  73  91 CALM      29.99S
CURRITUCK*     CLOUDY   N/A N/A N/A W3        29.98F
KILL DEVIL HLS CLOUDY    74  74 100 W6        29.96F
MANTEO         CLOUDY    73  72  95 W6        29.98S
CAPE HATTERAS  CLOUDY    76  74  93 SW12      29.99S FOG
TARBORO*       NOT AVBL
GOLDSBORO      CLOUDY    73  73 100 W3        29.99F
WASHINGTON     CLOUDY   N/A N/A N/A SW8       30.00S FOG
GREENVILLE     CLOUDY    73  73 100 SW5       30.02S
NEW BERN       CLOUDY    74  74 100 CALM      30.01F
WILMINGTON     CLOUDY    77  76  96 SW7       30.01F
$$

VAZ048-250800-
ELSEWHERE

CITY           SKY/WX    TMP DP  RH WIND       PRES   REMARKS
HARRISBURG PA  CLEAR     71  61  70 CALM      29.96S
BALTIMORE      PTCLDY    68  61  78 W6        29.95F
ANNAPOLIS      CLEAR     73  63  70 W5        29.95R
ANDREWS AFB    CLEAR     73  59  61 W6        29.96S
PHILADELPHIA   CLEAR     74  59  59 NW5       29.94R
HENDERSON NC   CLOUDY    68  67  94 CALM      30.02F
GREENSBORO     MOCLDY    70  70 100 NW5       30.04S
ROCKY MOUNT    CLOUDY    72  72 100 W6        30.02R
$$

VAZ100-250800-
MARINE

STATION/POSITION TIME  TEMP    WIND        PRES    WAVE   SWELL
                       AIR SEA DIR/SP/G            HT/PER HT/PER
                 (UTC) (F)     (DEG/KT/KT) (MB)    (FT/S) (FT/S)
BRANDYWINE LGT   0636          240/  8/  9 1014.1F
CAPE MAY NJ      0648      70  190/  1/  4 1013.4F
LEWES DE         0636      71  250/  6/  7 1013.7F
15NM E FENWICK I 0650   70 68  260/  4/  6 1014.2F   3/ 7   3/ 7
WACHAPREAGUE VA  0648      82  240/  5/  7 1014.0S
THOMAS POINT MD  0700   75 78  280/  8/ 10   N/A
GOOSES REEF MD   0700   78 80  320/  8/  8 1015.2
COVE POINT MD    0648          310/  6/  9 1014.9R
SOLOMONS ISLAND  0636      76  320/  4/  4   N/A
BISHOPS HEAD MD  0648      83  290/  2/  3 1014.2S
PINEY POINT MD   0648          320/  4/  4   N/A
POTOMAC MD       0700   78 78   CALM  /  2 1013.3    0
CAMBRIDGE MD     0648      81              1014.8R
LEWISETTA VA     0648      79  300/  2/  2 1014.3R
RAPPAHANNOCK LGT 0648          230/ 13/ 17 1014.7R
STINGRAY PT      0650   78     260/ 12/ 14 1014.2F
YORK RVR RNG VA  0648          280/ 12/ 13 1014.7F
YORKTOWN VA      0648      78  240/ 11/ 14 1014.2F
JAMESTOWN VA     0700   74 83  260/  6/  8   N/A     0
DOMINION TERM VA 0648          270/  8/ 10 1015.0S
KIPTOPEKE VA     0636      76  280/ 10/ 13   N/A
CHES BAY BRIDGE  0648      74  270/ 12/ 12 1014.5R
CAPE HENRY VA    0648          230/  7/  9   N/A
WILLOUBY STN VA  0648          250/ 13/ 14 1014.5F
S CRANEY ISL VA  0648          240/  4/  8 1014.7S
CAPE HENRY BUOY  0630      73                N/A     2/ 9
1ST LANDING BUOY 0700   75 74              1014.7    1/ 2
CAPE CHARLES BUO 0651      71                N/A     2/ 9
64NM E OF VA BCH 0650   73 72  190/  2/  4 1015.4R   4/ 7   3/ 7
DUCK PIER NC     0648      61  240/  8/ 10 1014.5F
44100 DUCK FRF   0605      71                N/A     2/ 9
OREGON INLET NC  0636      76  250/ 10/ 13 1015.0S
HATTERAS NC      0648      79  230/  9/ 12 1015.3F
DIAMOND SHLS NC  0650   78 80  210/ 17/ 19 1014.9F   5/ 6   2/ 9
CAPE LOOKOUT NC  0700   77     240/  9/ 13 1015.7S
$$




USA.gov is the U.S. government's official web portal to all federal, state and local government web resources and services.